N0HOT Weather Reports


Display with metric or nautical units.
time (UTC)temp
F
wind
direction
speed
MPH
gust
MPH
rain 1hr
in
rain 24hr
in
rain mn
in
humidity
%
barometer
mb
20260504202048 70 188 3.0 4.0 0.00 0.00 0.00 21 998.6
20260504201545 71 270 8.0 10.0 0.00 0.00 0.00 19 998.3
20260504201043 72 199 10.0 10.0 0.00 0.00 0.00 19 998.3
20260504200539 72 180 8.0 10.0 0.00 0.00 0.00 18 998.3
20260504200036 73 196 7.0 11.0 0.00 0.00 0.00 18 998.0
20260504195532 73 215 6.0 9.0 0.00 0.00 0.00 19 998.0
20260504195029 73 174 6.0 8.0 0.00 0.00 0.00 20 998.0
20260504194525 74 196 4.0 7.0 0.00 0.00 0.00 22 997.6
20260504194021 74 180 7.0 9.0 0.00 0.00 0.00 24 997.6
20260504193518 74 208 6.0 8.0 0.00 0.00 0.00 22 997.6
20260504193017 74 224 6.0 8.0 0.00 0.00 0.00 23 997.6
20260504192514 74 182 6.0 7.0 0.00 0.00 0.00 23 997.3
20260504192013 74 165 4.0 4.0 0.00 0.00 0.00 21 997.6
20260504191510 74 193 2.0 2.0 0.00 0.00 0.00 23 997.3
20260504191006 74 174 6.0 8.0 0.00 0.00 0.00 22 997.6
20260504190502 74 201 8.0 9.0 0.00 0.00 0.00 22 997.3
20260504185958 74 153 4.0 6.0 0.00 0.00 0.00 22 997.3
20260504185455 74 150 4.0 7.0 0.00 0.00 0.00 24 997.0
20260504184952 75 214 7.0 10.0 0.00 0.00 0.00 21 997.3
20260504184447 75 124 6.0 8.0 0.00 0.00 0.00 22 997.3
20260504183943 76 144 5.0 9.0 0.00 0.00 0.00 23 997.3
20260504183440 76 218 6.0 9.0 0.00 0.00 0.00 23 997.0
20260504182938 76 240 7.0 8.0 0.00 0.00 0.00 22 997.3
20260504182435 76 50 4.0 6.0 0.00 0.00 0.00 25 997.0
20260504181932 76 166 11.0 15.0 0.00 0.00 0.00 22 997.0
20260504181429 76 172 7.0 8.0 0.00 0.00 0.00 22 997.0
20260504180928 76 195 9.0 10.0 0.00 0.00 0.00 24 997.0
20260504180426 76 184 5.0 7.0 0.00 0.00 0.00 26 997.0
20260504175924 76 184 5.0 6.0 0.00 0.00 0.00 28 997.0
20260504175421 76 207 7.0 10.0 0.00 0.00 0.00 27 997.0
20260504174919 76 174 6.0 8.0 0.00 0.00 0.00 26 997.0
20260504174416 76 177 4.0 6.0 0.00 0.00 0.00 29 997.0
20260504173913 76 252 3.0 4.0 0.00 0.00 0.00 29 997.0
20260504173409 76 226 5.0 9.0 0.00 0.00 0.00 28 997.0
20260504172907 76 192 6.0 8.0 0.00 0.00 0.00 29 997.3
20260504172403 76 252 3.0 3.0 0.00 0.00 0.00 30 997.0
20260504171859 76 164 5.0 8.0 0.00 0.00 0.00 28 997.0
20260504171357 76 213 7.0 9.0 0.00 0.00 0.00 28 997.0
20260504170854 76 165 6.0 8.0 0.00 0.00 0.00 29 997.0
20260504170350 75 166 6.0 7.0 0.00 0.00 0.00 28 997.0
20260504160309 75 210 5.0 9.0 0.00 0.00 0.00 27 997.0
20260504150734 72 162 9.0 13.0 0.00 0.00 0.00 29 997.3
20260504150231 72 188 10.0 13.0 0.00 0.00 0.00 29 997.3
20260504141200 67 164 7.0 9.0 0.00 0.00 0.00 34 997.3
20260504140657 66 200 4.0 4.0 0.00 0.00 0.00 36 997.6
20260504140152 66 200 7.0 8.0 0.00 0.00 0.00 35 997.6
20260504130621 58 170 2.0 2.0 0.00 0.00 0.00 41 998.6
20260504130117 57 210 1.0 1.0 0.00 0.00 0.00 44 999.0
20260504110509 42 280 0.0 1.0 0.00 0.00 0.00 65 1000.3
20260504100425 42 302 0.0 1.0 0.00 0.00 0.00 68 1001.1
20260504081818 43 248 0.0 0.0 0.00 0.00 0.00 71 1002.5
20260504081315 43 261 0.0 1.0 0.00 0.00 0.00 70 1002.8
20260504080810 43 269 0.0 0.0 0.00 0.00 0.00 70 1002.5
20260504080308 43 252 0.0 0.0 0.00 0.00 0.00 69 1002.5
20260504070229 45 260 0.0 0.0 0.00 0.00 0.00 63 1003.2
20260504060149 48 206 0.0 0.0 0.00 0.00 0.00 58 1003.8
20260504050618 51 248 0.0 0.0 0.00 0.00 0.00 53 1004.2
20260504050115 51 269 1.0 1.0 0.00 0.00 0.00 53 1004.2
20260504045612 52 268 0.0 0.0 0.00 0.00 0.00 50 1004.2
20260504045106 52 261 1.0 1.0 0.00 0.00 0.00 49 1004.2
20260504044605 52 259 0.0 0.0 0.00 0.00 0.00 49 1004.5
20260504044101 53 259 0.0 0.0 0.00 0.00 0.00 46 1004.2
20260504043558 53 259 0.0 0.0 0.00 0.00 0.00 45 1004.2
20260504043055 53 259 0.0 0.0 0.00 0.00 0.00 42 1004.2
20260504042552 53 259 0.0 0.0 0.00 0.00 0.00 42 1004.5
20260504042049 53 259 0.0 0.0 0.00 0.00 0.00 42 1004.5
20260504041545 54 259 1.0 1.0 0.00 0.00 0.00 42 1004.5
20260504041041 54 259 0.0 0.0 0.00 0.00 0.00 42 1004.5
20260504040539 54 259 0.0 0.0 0.00 0.00 0.00 42 1004.5
20260504040035 54 259 0.0 0.0 0.00 0.00 0.00 42 1004.5
20260504035532 54 259 1.0 1.0 0.00 0.00 0.00 42 1004.5
20260504035029 54 258 0.0 0.0 0.00 0.00 0.00 42 1004.5
20260504034527 55 256 0.0 0.0 0.00 0.00 0.00 41 1004.8
20260504034023 55 280 0.0 0.0 0.00 0.00 0.00 40 1004.5
20260504033521 55 280 0.0 0.0 0.00 0.00 0.00 40 1004.5
20260504033018 56 280 0.0 0.0 0.00 0.00 0.00 40 1004.8
20260504032515 56 280 0.0 0.0 0.00 0.00 0.00 40 1004.8
20260504032012 57 280 0.0 0.0 0.00 0.00 0.00 40 1004.8
20260504031509 58 280 0.0 0.0 0.00 0.00 0.00 39 1004.8
20260504031005 59 280 0.0 0.0 0.00 0.00 0.00 39 1004.8
20260504030503 59 281 0.0 0.0 0.00 0.00 0.00 37 1004.5
20260504025958 60 278 0.0 1.0 0.00 0.00 0.00 35 1004.8
20260504025455 60 246 0.0 0.0 0.00 0.00 0.00 32 1004.5
20260504024952 60 246 0.0 0.0 0.00 0.00 0.00 32 1004.5
20260504024449 60 246 0.0 0.0 0.00 0.00 0.00 31 1004.8
20260504023946 60 246 0.0 0.0 0.00 0.00 0.00 31 1004.5
20260504023443 61 246 0.0 0.0 0.00 0.00 0.00 30 1004.2
20260504022938 61 246 0.0 1.0 0.00 0.00 0.00 30 1004.2
20260504022435 61 246 0.0 0.0 0.00 0.00 0.00 30 1004.2
20260504021932 62 246 0.0 0.0 0.00 0.00 0.00 30 1004.2
20260504021429 62 246 0.0 0.0 0.00 0.00 0.00 29 1004.2
20260504020926 63 246 0.0 0.0 0.00 0.00 0.00 29 1004.2
20260504020423 63 246 0.0 0.0 0.00 0.00 0.00 28 1004.2
20260504015919 64 246 0.0 1.0 0.00 0.00 0.00 27 1004.2
20260504015415 64 246 0.0 0.0 0.00 0.00 0.00 27 1004.2
20260504014912 64 246 0.0 0.0 0.00 0.00 0.00 27 1004.2
20260504014408 65 246 0.0 0.0 0.00 0.00 0.00 26 1003.8
20260504013905 65 245 0.0 0.0 0.00 0.00 0.00 26 1004.2
20260504013403 66 230 0.0 1.0 0.00 0.00 0.00 26 1004.2
20260504012858 66 222 0.0 0.0 0.00 0.00 0.00 26 1003.8
20260504012356 67 198 0.0 0.0 0.00 0.00 0.00 26 1004.2
20260504011849 67 198 0.0 0.0 0.00 0.00 0.00 26 1004.2
20260504011345 68 199 0.0 0.0 0.00 0.00 0.00 25 1004.2
20260504010841 68 228 1.0 1.0 0.00 0.00 0.00 24 1004.2
20260504010337 69 198 0.0 0.0 0.00 0.00 0.00 23 1003.8
20260504005833 69 187 0.0 1.0 0.00 0.00 0.00 23 1003.8
20260504005330 69 198 2.0 2.0 0.00 0.00 0.00 22 1003.5
20260504004828 70 189 1.0 2.0 0.00 0.00 0.00 23 1003.8
20260504004326 70 177 2.0 3.0 0.00 0.00 0.00 22 1003.5
20260504003821 70 240 2.0 4.0 0.00 0.00 0.00 21 1003.8
20260504003319 71 173 2.0 3.0 0.00 0.00 0.00 22 1003.8
20260504002815 71 199 1.0 2.0 0.00 0.00 0.00 22 1003.8
20260504002312 71 179 3.0 3.0 0.00 0.00 0.00 21 1003.5
20260504001810 71 212 4.0 7.0 0.00 0.00 0.00 22 1003.5
20260504001307 71 190 4.0 4.0 0.00 0.00 0.00 22 1003.5
20260504000804 72 140 2.0 3.0 0.00 0.00 0.00 21 1003.8
20260504000301 72 195 2.0 3.0 0.00 0.00 0.00 21 1003.5
20260503235759 72 217 4.0 7.0 0.00 0.00 0.00 20 1003.5
20260503235256 72 261 6.0 7.0 0.00 0.00 0.00 20 1003.5
20260503234753 73 277 2.0 2.0 0.00 0.00 0.00 22 1003.8
20260503234251 73 189 4.0 4.0 0.00 0.00 0.00 22 1003.5
20260503233748 73 200 2.0 3.0 0.00 0.00 0.00 22 1003.5
20260503233244 73 224 2.0 3.0 0.00 0.00 0.00 23 1003.5
20260503232741 73 150 5.0 7.0 0.00 0.00 0.00 23 1003.5
20260503232238 74 244 2.0 3.0 0.00 0.00 0.00 24 1003.5
20260503231736 74 107 2.0 3.0 0.00 0.00 0.00 25 1003.5
20260503231232 74 43 0.0 0.0 0.00 0.00 0.00 23 1003.5
20260503230723 74 212 1.0 2.0 0.00 0.00 0.00 24 1003.5
20260503230221 74 153 4.0 4.0 0.00 0.00 0.00 23 1003.5
20260503225717 74 190 2.0 2.0 0.00 0.00 0.00 22 1003.5
20260503225218 75 219 4.0 4.0 0.00 0.00 0.00 21 1003.5
20260503224715 75 186 2.0 3.0 0.00 0.00 0.00 21 1003.2
20260503224213 75 205 2.0 3.0 0.00 0.00 0.00 22 1003.2
20260503223710 75 215 5.0 6.0 0.00 0.00 0.00 20 1003.2
20260503223207 75 138 3.0 4.0 0.00 0.00 0.00 20 1003.2
20260503222704 75 206 3.0 3.0 0.00 0.00 0.00 21 1003.2
20260503222201 75 189 4.0 7.0 0.00 0.00 0.00 22 1003.5
20260503221700 75 175 5.0 6.0 0.00 0.00 0.00 20 1003.2
20260503221157 75 191 3.0 4.0 0.00 0.00 0.00 21 1003.2
20260503220654 75 187 5.0 7.0 0.00 0.00 0.00 19 1003.2
20260503220150 75 159 5.0 9.0 0.00 0.00 0.00 20 1003.5
20260503215647 75 317 2.0 7.0 0.00 0.00 0.00 21 1003.5
20260503215143 75 147 4.0 6.0 0.00 0.00 0.00 21 1003.5
20260503214642 75 200 6.0 8.0 0.00 0.00 0.00 20 1003.2
20260503214138 76 357 7.0 9.0 0.00 0.00 0.00 20 1003.5
20260503213632 76 169 3.0 4.0 0.00 0.00 0.00 21 1003.2
20260503213128 76 187 4.0 6.0 0.00 0.00 0.00 19 1003.5
20260503212626 76 186 9.0 10.0 0.00 0.00 0.00 19 1003.2
20260503212123 77 189 4.0 7.0 0.00 0.00 0.00 20 1003.5
20260503211621 77 248 6.0 8.0 0.00 0.00 0.00 20 1003.5
20260503211116 76 260 5.0 7.0 0.00 0.00 0.00 19 1003.5
20260503210613 76 148 1.0 1.0 0.00 0.00 0.00 21 1003.5
20260503210109 76 149 4.0 4.0 0.00 0.00 0.00 19 1003.5
20260503205605 76 166 5.0 6.0 0.00 0.00 0.00 19 1003.5
20260503205101 76 169 4.0 6.0 0.00 0.00 0.00 20 1003.5
20260503204558 76 193 4.0 6.0 0.00 0.00 0.00 19 1003.8
20260503204055 76 197 4.0 6.0 0.00 0.00 0.00 22 1003.8
20260503203552 76 212 4.0 6.0 0.00 0.00 0.00 22 1003.8
20260503203050 76 265 4.0 4.0 0.00 0.00 0.00 20 1003.5
20260503202548 76 186 4.0 4.0 0.00 0.00 0.00 24 1003.8